Regional Weather Roundup
Issued by NWS

Home | Current Version | Previous Version | Text Only | Print | Product List | Glossary Off
Versions: 1 2 3 4 5 6 7 8 9 10 11 12 13 14 15 16 17 18 19 20 21 22 23 24 25 26 27 28 29 30 31 32 33 34 35 36 37 38 39 40 41 42 43 44 45 46 47 48 49 50

000
ASUS43 KFSD 302210
RWRSD

WEATHER ROUNDUP FOR SOUTH DAKOTA
NATIONAL WEATHER SERVICE SIOUX FALLS SD
500 PM CDT THU OCT 30 2014

NOTE: "FAIR" INDICATES FEW OR NO CLOUDS BELOW 12,000 FEET WITH NO
SIGNIFICANT WEATHER AND/OR OBSTRUCTIONS TO VISIBILITY.


SDZ001>005-009-010-012>017-302300-
NORTHWEST AND NORTH CENTRAL SOUTH DAKOTA

CITY           SKY/WX    TMP DP  RH WIND       PRES   REMARKS
BUFFALO          N/A     41  31  67 E12       30.33R
FAITH            N/A     40  31  70 N10       30.40R
MOBRIDGE       CLOUDY    38  30  73 N16       30.41R
$$

SDZ012>016-024>037-041>051-057-063-072>074-302300-
SOUTHWEST AND SOUTH CENTRAL SOUTH DAKOTA

CITY           SKY/WX    TMP DP  RH WIND       PRES   REMARKS
RAPID CTY ARPT SUNNY     48  33  56 NE15      30.35R
PIERRE         SUNNY     47  31  53 N17G25    30.37R
CUSTER         MOSUNNY   47  33  58 E10       30.34R
ELLSWORTH AFB  SUNNY     47  33  58 NE14      30.36R
PHILIP         SUNNY     47  32  56 N15       30.38R
PINE RIDGE     SUNNY     54  33  45 N12       30.33R
SPEARFISH      FAIR      46  36  66 E8        30.37R
WINNER         FAIR      47  32  56 N20       30.35R
$$

SDZ004>011-016>023-039-040-302300-
NORTHEAST SOUTH DAKOTA

CITY           SKY/WX    TMP DP  RH WIND       PRES   REMARKS
ABERDEEN       CLOUDY    39  29  67 N22G30    30.40R
WATERTOWN      CLOUDY    37  30  75 N21G26    30.30R
SISSETON         N/A     37  30  75 N21G32    30.35R
$$

SDZ017-020-022-023-036>040-048>070-302300-
SOUTHEAST SOUTH DAKOTA

CITY           SKY/WX    TMP DP  RH WIND       PRES   REMARKS
SIOUX FALLS    CLOUDY    45  39  79 N18G25    30.24R
HURON          CLOUDY    43  32  65 N23G29    30.35R
CHAMBERLAIN    SUNNY     47  32  56 N12G18    30.34R
MITCHELL       CLOUDY    44  35  70 N22G30    30.33R
YANKTON        CLOUDY    45  37  76 NW17G28   30.27R
$$

ABBREVIATIONS USED IN REMARKS
   TC - TEMPERATURE IN CELSIUS
  WCI - WIND CHILL INDEX
   HX - HEAT INDEX
  VSB - VISIBILITY




USA.gov is the U.S. government's official web portal to all federal, state and local government web resources and services.